PROGRESS-M 29M

Last updated on April 8, 2016, 5:35 p.m. UTC

1 40944U 15055A   16099.44061493  .00013326  00000-0  16566-3 0  9995
2 40944  51.6445  45.5459 0021313 283.1588 174.8497 15.60071050 29528

Satellite is not in orbit.